• în România
  • Lista ţărilor
  • Pe 7 zile
  • Temperatura apei
  • Hartă satelitară
  • Meteo pe hartă
  • Widget-uri
  • user-avatar
    Intrare

    Meteo pe oră la Shestakovo

    Astăzi, 23 Aprilie, Luni

    Timp Temperatura Precipitaţii Vânt Presiune Umiditate
    00:00 -1°C° 0 mm 2 m/s 744 mmHg 79%
    01:00 0°C° 0 mm 1 m/s 744 mmHg 81%
    02:00 0°C° 0 mm 1 m/s 744 mmHg 82%
    03:00 0°C° 0 mm 1 m/s 745 mmHg 82%
    04:00 0°C° 0 mm 1 m/s 745 mmHg 81%
    05:00 0°C° 0 mm 1 m/s 745 mmHg 81%
    06:00 +1°C° 0 mm 1 m/s 746 mmHg 70%
    07:00 +2°C° 0 mm 2 m/s 746 mmHg 60%
    08:00 +4°C° 0 mm 2 m/s 746 mmHg 49%
    09:00 +5°C° 0 mm 2 m/s 746 mmHg 45%
    10:00 +6°C° 0 mm 2 m/s 746 mmHg 40%
    11:00 +8°C° 0 mm 2 m/s 746 mmHg 35%
    12:00 +8°C° 0 mm 2 m/s 746 mmHg 34%
    13:00 +9°C° 0 mm 2 m/s 745 mmHg 33%
    14:00 +9°C° 0 mm 2 m/s 745 mmHg 32%
    15:00 +9°C° 0 mm 2 m/s 745 mmHg 33%
    16:00 +9°C° 0 mm 2 m/s 745 mmHg 35%
    17:00 +10°C° 0 mm 1 m/s 745 mmHg 36%
    18:00 +8°C° 0 mm 1 m/s 745 mmHg 42%
    19:00 +6°C° 0 mm 1 m/s 745 mmHg 49%
    20:00 +3°C° 0 mm 0 m/s 744 mmHg 55%
    21:00 +4°C° 0 mm 1 m/s 744 mmHg 57%
    22:00 +3°C° 0 mm 1 m/s 744 mmHg 59%
    23:00 +3°C° 0 mm 1 m/s 744 mmHg 61%

    Mâine, 24 Aprilie, Marţi

    Timp Temperatura Precipitaţii Vânt Presiune Umiditate
    00:00 +2°C° 0 mm 1 m/s 744 mmHg 62%
    01:00 +2°C° 0 mm 1 m/s 744 mmHg 64%
    02:00 +1°C° 0 mm 2 m/s 744 mmHg 65%
    03:00 +1°C° 0 mm 2 m/s 743 mmHg 65%
    04:00 +1°C° 0 mm 2 m/s 743 mmHg 66%
    05:00 +2°C° 0 mm 2 m/s 742 mmHg 66%
    06:00 +3°C° 0 mm 2 m/s 742 mmHg 63%
    07:00 +4°C° 0 mm 3 m/s 741 mmHg 61%
    08:00 +5°C° 0 mm 3 m/s 741 mmHg 58%
    09:00 +8°C° 0 mm 3 m/s 741 mmHg 56%
    10:00 +8°C° 0 mm 4 m/s 740 mmHg 54%
    11:00 +10°C° 0 mm 4 m/s 740 mmHg 52%
    12:00 +11°C° 0,1 mm 4 m/s 740 mmHg 56%
    13:00 +11°C° 0,1 mm 4 m/s 739 mmHg 59%
    14:00 +11°C° 0,1 mm 4 m/s 739 mmHg 62%
    15:00 +10°C° 0,4 mm 3 m/s 739 mmHg 70%
    16:00 +9°C° 0,4 mm 3 m/s 738 mmHg 77%
    17:00 +9°C° 0,4 mm 2 m/s 738 mmHg 85%
    18:00 +8°C° 0 mm 2 m/s 738 mmHg 88%
    19:00 +8°C° 0 mm 2 m/s 738 mmHg 92%
    20:00 +7°C° 0 mm 2 m/s 738 mmHg 95%
    21:00 +7°C° 0,1 mm 2 m/s 738 mmHg 95%
    22:00 +7°C° 0,1 mm 2 m/s 738 mmHg 95%
    23:00 +7°C° 0,1 mm 2 m/s 738 mmHg 96%

    Poimâine, 25 Aprilie, Miercuri

    Timp Temperatura Precipitaţii Vânt Presiune Umiditate
    00:00 +7°C° 0 mm 2 m/s 738 mmHg 95%
    01:00 +6°C° 0 mm 2 m/s 738 mmHg 95%
    02:00 +6°C° 0 mm 2 m/s 738 mmHg 94%
    03:00 +6°C° 0 mm 2 m/s 738 mmHg 94%
    04:00 +5°C° 0 mm 2 m/s 738 mmHg 95%
    05:00 +5°C° 0 mm 2 m/s 737 mmHg 95%
    06:00 +5°C° 0,1 mm 3 m/s 737 mmHg 93%
    07:00 +5°C° 0,1 mm 3 m/s 737 mmHg 91%
    08:00 +7°C° 0,1 mm 3 m/s 737 mmHg 89%
    09:00 +7°C° 0,1 mm 4 m/s 737 mmHg 88%
    10:00 +7°C° 0,1 mm 4 m/s 737 mmHg 87%
    11:00 +8°C° 0,1 mm 4 m/s 736 mmHg 85%
    12:00 +10°C° 0,1 mm 4 m/s 736 mmHg 79%
    13:00 +10°C° 0,1 mm 5 m/s 736 mmHg 73%
    14:00 +10°C° 0,1 mm 5 m/s 736 mmHg 66%
    15:00 +10°C° 0 mm 5 m/s 736 mmHg 64%
    16:00 +10°C° 0 mm 5 m/s 736 mmHg 61%
    17:00 +10°C° 0 mm 5 m/s 736 mmHg 58%
    18:00 +10°C° 0 mm 4 m/s 736 mmHg 64%
    19:00 +8°C° 0 mm 3 m/s 736 mmHg 70%
    20:00 +7°C° 0 mm 2 m/s 737 mmHg 76%
    21:00 +6°C° 0 mm 2 m/s 736 mmHg 78%
    22:00 +6°C° 0 mm 2 m/s 736 mmHg 79%
    23:00 +6°C° 0 mm 2 m/s 736 mmHg 80%

    26 Aprilie, Joi

    Timp Temperatura Precipitaţii Vânt Presiune Umiditate
    00:00 +6°C° 0,1 mm 2 m/s 736 mmHg 83%
    01:00 +5°C° 0,1 mm 2 m/s 736 mmHg 86%
    02:00 +5°C° 0,1 mm 2 m/s 736 mmHg 89%
    03:00 +4°C° 0 mm 2 m/s 736 mmHg 90%
    04:00 +4°C° 0 mm 2 m/s 736 mmHg 91%
    05:00 +3°C° 0 mm 2 m/s 736 mmHg 93%
    06:00 +5°C° 0 mm 2 m/s 736 mmHg 84%
    07:00 +7°C° 0 mm 3 m/s 736 mmHg 75%
    08:00 +9°C° 0 mm 3 m/s 736 mmHg 66%
    09:00 +10°C° 0,1 mm 4 m/s 737 mmHg 61%
    10:00 +11°C° 0,1 mm 4 m/s 737 mmHg 56%
    11:00 +12°C° 0,1 mm 5 m/s 737 mmHg 51%
    12:00 +12°C° 0,2 mm 5 m/s 737 mmHg 50%
    13:00 +13°C° 0,2 mm 5 m/s 737 mmHg 48%
    14:00 +13°C° 0,2 mm 5 m/s 737 mmHg 47%
    15:00 +13°C° 0,3 mm 5 m/s 738 mmHg 49%
    16:00 +12°C° 0,3 mm 4 m/s 738 mmHg 52%
    17:00 +12°C° 0,3 mm 4 m/s 738 mmHg 54%
    18:00 +10°C° 0,1 mm 3 m/s 738 mmHg 60%
    19:00 +9°C° 0,1 mm 3 m/s 739 mmHg 66%
    20:00 +8°C° 0,1 mm 2 m/s 739 mmHg 73%
    21:00 +8°C° 0,1 mm 2 m/s 740 mmHg 74%
    22:00 +8°C° 0,1 mm 3 m/s 740 mmHg 75%
    23:00 +8°C° 0,1 mm 3 m/s 740 mmHg 76%

    27 Aprilie, Vineri

    Timp Temperatura Precipitaţii Vânt Presiune Umiditate
    00:00 +7°C° 0 mm 3 m/s 740 mmHg 81%
    01:00 +5°C° 0 mm 3 m/s 741 mmHg 85%
    02:00 +5°C° 0 mm 2 m/s 741 mmHg 89%
    03:00 +5°C° 0 mm 2 m/s 741 mmHg 91%
    04:00 +4°C° 0 mm 2 m/s 741 mmHg 93%
    05:00 +4°C° 0 mm 2 m/s 742 mmHg 94%
    06:00 +5°C° 0 mm 2 m/s 742 mmHg 85%
    07:00 +7°C° 0 mm 2 m/s 742 mmHg 75%
    08:00 +9°C° 0 mm 3 m/s 742 mmHg 66%
    09:00 +10°C° 0 mm 3 m/s 742 mmHg 58%
    10:00 +12°C° 0 mm 3 m/s 742 mmHg 49%
    11:00 +13°C° 0 mm 4 m/s 742 mmHg 41%
    12:00 +14°C° 0 mm 4 m/s 741 mmHg 41%
    13:00 +14°C° 0 mm 4 m/s 741 mmHg 41%
    14:00 +15°C° 0 mm 4 m/s 740 mmHg 42%
    15:00 +13°C° 1,7 mm 3 m/s 740 mmHg 57%
    16:00 +11°C° 1,7 mm 3 m/s 740 mmHg 72%
    17:00 +9°C° 1,7 mm 2 m/s 739 mmHg 87%
    18:00 +9°C° 0,3 mm 3 m/s 739 mmHg 87%
    19:00 +8°C° 0,3 mm 3 m/s 739 mmHg 87%
    20:00 +7°C° 0,3 mm 3 m/s 740 mmHg 88%
    21:00 +6°C° 0 mm 4 m/s 740 mmHg 88%
    22:00 +5°C° 0 mm 4 m/s 740 mmHg 87%
    23:00 +5°C° 0 mm 5 m/s 741 mmHg 87%

    28 Aprilie, Sâmbătă

    Timp Temperatura Precipitaţii Vânt Presiune Umiditate
    00:00 +5°C° 0 mm 5 m/s 741 mmHg 88%
    01:00 +3°C° 0 mm 5 m/s 742 mmHg 88%
    02:00 +3°C° 0 mm 5 m/s 742 mmHg 88%
    03:00 +3°C° 0 mm 5 m/s 742 mmHg 88%
    04:00 +3°C° 0 mm 5 m/s 743 mmHg 87%
    05:00 +3°C° 0 mm 5 m/s 743 mmHg 87%
    06:00 +3°C° 0 mm 5 m/s 744 mmHg 84%
    07:00 +4°C° 0 mm 4 m/s 744 mmHg 82%
    08:00 +5°C° 0 mm 4 m/s 745 mmHg 79%
    09:00 +6°C° 0 mm 5 m/s 745 mmHg 72%
    10:00 +8°C° 0 mm 5 m/s 745 mmHg 65%
    11:00 +10°C° 0 mm 5 m/s 746 mmHg 57%
    12:00 +10°C° 0,1 mm 5 m/s 746 mmHg 54%
    13:00 +12°C° 0,1 mm 5 m/s 746 mmHg 50%
    14:00 +13°C° 0,1 mm 5 m/s 746 mmHg 46%
    15:00 +13°C° 0,1 mm 4 m/s 746 mmHg 47%
    16:00 +12°C° 0,1 mm 3 m/s 746 mmHg 48%
    17:00 +12°C° 0,1 mm 3 m/s 746 mmHg 49%
    18:00 +12°C° 0,1 mm 2 m/s 746 mmHg 57%
    19:00 +10°C° 0,1 mm 1 m/s 747 mmHg 64%
    20:00 +8°C° 0,1 mm 1 m/s 747 mmHg 71%
    21:00 +8°C° 0,1 mm 1 m/s 747 mmHg 76%
    22:00 +7°C° 0,1 mm 1 m/s 747 mmHg 80%
    23:00 +5°C° 0,1 mm 2 m/s 748 mmHg 84%
    Arată mai mult